Grand Junction, CO

10:23 PM MDT on August 25, 2016 (GMT -0600)
Walker

Weather History for KGJT - June, 2013

Change the Weather History Date:

Sunday, June 16, 2013

  Actual Average Record
Temperature  
Mean Temperature 76 °F 72 °F  
Max Temperature 90 °F 88 °F 100 °F (1896)
Min Temperature 62 °F 57 °F 43 °F (1957)
Degree Days  
Heating Degree Days 0 1  
Month to date heating degree days 5 20  
Since 1 June heating degree days 5 20  
Since 1 July heating degree days 6056 5609  
Cooling Degree Days 11 8  
Month to date cooling degree days 139 92  
Year to date cooling degree days 194 143  
Since 1 June cooling degree days 139 92  
Growing Degree Days 26 (Base 50)    
Moisture  
Dew Point 38 °F    
Average Humidity 30    
Maximum Humidity 45    
Minimum Humidity 14    
Precipitation  
Precipitation 0.01 in 0.02 in 0.30 in (1969)
Month to date precipitation 0.01 0.27  
Year to date precipitation 3.42 4.10  
Snow  
Snow 0.00 in 0.00 in 0.00 in (2015)
Month to date snowfall 0.0 0.0  
Since 1 June snowfall 0.0 0.0  
Since 1 July snowfall 24.6 19.1  
Snow Depth 0.00 in    
Sea Level Pressure  
Sea Level Pressure 29.87 in    
Wind  
Wind Speed 11 mph (ESE)    
Max Wind Speed 26 mph    
Max Gust Speed 32 mph    
Visibility 10 miles    
Events Rain , Thunderstorm    
T = Trace of Precipitation, MM = Missing Value Source: NWS Daily Summary

Daily Weather History Graph

Daily Weather History Graph

Search for Another Location

Airport or City:

Trip Planner

Search our weather history database for the weather conditions in past years. The results will help you decide how hot, cold, wet, or windy it might be!

Date:

Astronomy

Jun. 16, 2013 Rise Set
Actual Time 5:47 AM MDT 8:42 PM MDT
Civil Twilight 5:15 AM MDT 9:14 PM MDT
Nautical Twilight 4:34 AM MDT 9:55 PM MDT
Astronomical Twilight 3:47 AM MDT 10:42 PM MDT
Moon 1:23 PM MDT (6/16) 12:51 AM MDT (6/16)
Length of Visible Light 15h 59m
Length of Day
14h 54m
Waxing Crescent, 50% of the Moon is Illuminated
Jun 16
Waxing Crescent
Jun 23
Full
Jun 29
Last Quarter
Jul 8
New
Jul 15
First Quarter

Hourly Weather History & Observations

Time (MDT) Temp. Dew Point Humidity Pressure Visibility Wind Dir Wind Speed Gust Speed Precip Events Conditions
12:53 AM 72.0 °F 34.0 °F 25% 29.83 in 10.0 mi East 10.4 mph - N/A   Clear
1:53 AM 72.0 °F 35.1 °F 26% 29.82 in 10.0 mi ESE 6.9 mph - N/A   Clear
2:53 AM 71.1 °F 35.1 °F 27% 29.83 in 10.0 mi ESE 12.7 mph - N/A   Clear
3:53 AM 70.0 °F 42.1 °F 36% 29.84 in 10.0 mi ESE 16.1 mph - 0.00 in Rain Light Rain
4:53 AM 68.0 °F 46.0 °F 45% 29.83 in 10.0 mi ESE 18.4 mph 28.8 mph 0.00 in Rain Light Rain
5:36 AM 62.6 °F 46.4 °F 55% 30.08 in 10.0 mi East 13.8 mph - 0.01 in Rain , Thunderstorm Light Rain
5:45 AM 62.6 °F 46.4 °F 55% 30.09 in 10.0 mi ESE 15.0 mph - 0.01 in   Scattered Clouds
5:53 AM 66.0 °F 42.1 °F 42% 29.88 in 10.0 mi ESE 17.3 mph - 0.01 in   Partly Cloudy
6:53 AM 64.9 °F 41.0 °F 42% 29.89 in 10.0 mi ESE 11.5 mph - N/A   Clear
7:53 AM 66.9 °F 39.9 °F 37% 29.93 in 10.0 mi East 11.5 mph - N/A   Clear
8:53 AM 72.0 °F 37.9 °F 29% 29.92 in 10.0 mi ESE 19.6 mph - 0.00 in   Clear
9:53 AM 73.0 °F 41.0 °F 31% 29.93 in 10.0 mi SE 6.9 mph - N/A   Scattered Clouds
10:18 AM 73.4 °F 41.0 °F 31% 30.13 in 10.0 mi SE 13.8 mph - N/A Thunderstorm Thunderstorm
10:53 AM 77.0 °F 41.0 °F 28% 29.92 in 10.0 mi SE 12.7 mph - N/A   Clear
11:53 AM 80.1 °F 39.0 °F 23% 29.91 in 10.0 mi SSE 11.5 mph - N/A   Clear
12:53 PM 82.0 °F 37.9 °F 21% 29.88 in 10.0 mi South 8.1 mph - N/A   Clear
1:53 PM 84.9 °F 35.1 °F 17% 29.85 in 10.0 mi Calm Calm - N/A   Scattered Clouds
2:53 PM 88.0 °F 34.0 °F 15% 29.81 in 10.0 mi NW 10.4 mph 18.4 mph N/A   Clear
3:53 PM 87.1 °F 33.1 °F 15% 29.81 in 10.0 mi Calm Calm - N/A   Clear
4:53 PM 87.1 °F 35.1 °F 16% 29.79 in 10.0 mi SE 9.2 mph - N/A   Clear
5:23 PM 86.0 °F 37.4 °F 18% 30.01 in 10.0 mi SE 13.8 mph - N/A Thunderstorm Thunderstorm
5:53 PM 87.1 °F 35.1 °F 16% 29.78 in 10.0 mi ESE 9.2 mph - 0.00 in   Clear
6:53 PM 86.0 °F 32.0 °F 14% 29.77 in 10.0 mi East 6.9 mph - N/A   Clear
7:53 PM 84.0 °F 32.0 °F 15% 29.77 in 10.0 mi East 3.5 mph - N/A   Clear
8:53 PM 75.9 °F 33.1 °F 21% 29.79 in 10.0 mi ESE 4.6 mph - N/A   Clear
9:53 PM 75.0 °F 35.1 °F 23% 29.80 in 10.0 mi NE 10.4 mph - N/A   Clear
10:53 PM 75.9 °F 37.9 °F 25% 29.80 in 10.0 mi ENE 20.7 mph 27.6 mph N/A   Clear
11:53 PM 73.9 °F 39.0 °F 28% 29.81 in 10.0 mi ENE 21.9 mph 26.5 mph N/A   Clear